• In Germany
  • List of Countries
  • For 7 days
  • Water Temperature
  • Satellite Maps
  • Weather Map
  • Weather Widgets
  • user-avatar
    Login

    Hourly Weather Jalalabad

    Today, 29 June, Thursday

    Time Temperature Precipitation Wind Pressure Humidity
    00:00 +31°C° 0.9 mm 2 mps 705 mmHg 68%
    01:00 +30°C° 0.9 mm 1 mps 705 mmHg 70%
    02:00 +30°C° 0.9 mm 1 mps 705 mmHg 73%
    03:00 +29°C° 0.3 mm 1 mps 704 mmHg 75%
    04:00 +29°C° 0.3 mm 1 mps 704 mmHg 78%
    05:00 +26°C° 0.3 mm 0 mps 704 mmHg 80%
    06:00 +29°C° 0.1 mm 1 mps 704 mmHg 73%
    07:00 +30°C° 0.1 mm 1 mps 704 mmHg 66%
    08:00 +31°C° 0.1 mm 1 mps 705 mmHg 59%
    09:00 +32°C° 0.1 mm 1 mps 704 mmHg 52%
    10:00 +34°C° 0.1 mm 1 mps 704 mmHg 45%
    11:00 +36°C° 0.1 mm 2 mps 704 mmHg 38%
    12:00 +37°C° 0.2 mm 2 mps 704 mmHg 35%
    13:00 +38°C° 0.2 mm 2 mps 703 mmHg 33%
    14:00 +39°C° 0.2 mm 3 mps 703 mmHg 30%
    15:00 +39°C° 0.4 mm 3 mps 703 mmHg 31%
    16:00 +39°C° 0.4 mm 3 mps 702 mmHg 31%
    17:00 +39°C° 0.4 mm 3 mps 702 mmHg 31%
    18:00 +37°C° 0.5 mm 2 mps 702 mmHg 36%
    19:00 +36°C° 0.5 mm 2 mps 702 mmHg 40%
    20:00 +33°C° 0.5 mm 1 mps 702 mmHg 45%
    21:00 +33°C° 0.3 mm 1 mps 702 mmHg 47%
    22:00 +30°C° 0.3 mm 0 mps 703 mmHg 49%
    23:00 +29°C° 0.3 mm 0 mps 703 mmHg 51%

    Tomorrow, 30 June, Friday

    Time Temperature Precipitation Wind Pressure Humidity
    00:00 +29°C° 0 mm 0 mps 702 mmHg 52%
    01:00 +28°C° 0 mm 0 mps 702 mmHg 52%
    02:00 +27°C° 0 mm 0 mps 702 mmHg 53%
    03:00 +27°C° 0 mm 0 mps 702 mmHg 52%
    04:00 +27°C° 0 mm 0 mps 701 mmHg 52%
    05:00 +28°C° 0 mm 1 mps 701 mmHg 52%
    06:00 +30°C° 0 mm 1 mps 702 mmHg 44%
    07:00 +32°C° 0 mm 1 mps 702 mmHg 37%
    08:00 +33°C° 0 mm 1 mps 702 mmHg 30%
    09:00 +35°C° 0 mm 1 mps 702 mmHg 27%
    10:00 +36°C° 0 mm 1 mps 702 mmHg 24%
    11:00 +38°C° 0 mm 2 mps 702 mmHg 20%
    12:00 +39°C° 0 mm 2 mps 702 mmHg 19%
    13:00 +40°C° 0 mm 2 mps 701 mmHg 18%
    14:00 +41°C° 0 mm 2 mps 701 mmHg 16%
    15:00 +41°C° 0 mm 2 mps 701 mmHg 16%
    16:00 +42°C° 0 mm 3 mps 700 mmHg 16%
    17:00 +42°C° 0 mm 3 mps 700 mmHg 16%
    18:00 +39°C° 0 mm 2 mps 700 mmHg 20%
    19:00 +37°C° 0 mm 2 mps 700 mmHg 24%
    20:00 +34°C° 0 mm 1 mps 700 mmHg 28%
    21:00 +33°C° 0.1 mm 1 mps 701 mmHg 31%
    22:00 +30°C° 0.1 mm 0 mps 701 mmHg 33%
    23:00 +29°C° 0.1 mm 0 mps 701 mmHg 36%

    Day after tomorrow, 1 July, Saturday

    Time Temperature Precipitation Wind Pressure Humidity
    00:00 +29°C° 0.1 mm 0 mps 701 mmHg 36%
    01:00 +29°C° 0.1 mm 0 mps 701 mmHg 37%
    02:00 +30°C° 0.1 mm 1 mps 701 mmHg 37%
    03:00 +30°C° 0 mm 1 mps 701 mmHg 37%
    04:00 +29°C° 0 mm 1 mps 701 mmHg 38%
    05:00 +29°C° 0 mm 1 mps 701 mmHg 38%
    06:00 +31°C° 0 mm 1 mps 701 mmHg 33%
    07:00 +33°C° 0 mm 1 mps 702 mmHg 27%
    08:00 +35°C° 0 mm 1 mps 702 mmHg 22%
    09:00 +36°C° 0 mm 1 mps 702 mmHg 19%
    10:00 +39°C° 0 mm 2 mps 702 mmHg 16%
    11:00 +40°C° 0 mm 2 mps 702 mmHg 13%
    12:00 +41°C° 0 mm 2 mps 702 mmHg 12%
    13:00 +42°C° 0 mm 2 mps 701 mmHg 12%
    14:00 +43°C° 0 mm 2 mps 701 mmHg 11%
    15:00 +43°C° 0 mm 2 mps 701 mmHg 11%
    16:00 +43°C° 0 mm 2 mps 700 mmHg 11%
    17:00 +43°C° 0 mm 2 mps 700 mmHg 11%
    18:00 +40°C° 0 mm 1 mps 700 mmHg 14%
    19:00 +37°C° 0 mm 1 mps 700 mmHg 17%
    20:00 +35°C° 0 mm 1 mps 701 mmHg 20%
    21:00 +34°C° 0 mm 1 mps 701 mmHg 21%
    22:00 +33°C° 0 mm 1 mps 701 mmHg 22%
    23:00 +34°C° 0 mm 2 mps 702 mmHg 22%

    2 July, Sunday

    Time Temperature Precipitation Wind Pressure Humidity
    00:00 +32°C° 0 mm 2 mps 702 mmHg 22%
    01:00 +31°C° 0 mm 2 mps 701 mmHg 22%
    02:00 +31°C° 0 mm 2 mps 701 mmHg 22%
    03:00 +30°C° 0 mm 2 mps 701 mmHg 22%
    04:00 +30°C° 0 mm 2 mps 701 mmHg 23%
    05:00 +29°C° 0 mm 2 mps 701 mmHg 23%
    06:00 +31°C° 0 mm 2 mps 701 mmHg 20%
    07:00 +35°C° 0 mm 2 mps 702 mmHg 17%
    08:00 +37°C° 0 mm 2 mps 702 mmHg 14%
    09:00 +38°C° 0 mm 2 mps 702 mmHg 13%
    10:00 +39°C° 0 mm 2 mps 702 mmHg 12%
    11:00 +41°C° 0 mm 2 mps 702 mmHg 11%
    12:00 +41°C° 0 mm 2 mps 702 mmHg 10%
    13:00 +42°C° 0 mm 2 mps 701 mmHg 10%
    14:00 +43°C° 0 mm 2 mps 701 mmHg 10%
    15:00 +43°C° 0 mm 2 mps 701 mmHg 10%
    16:00 +43°C° 0 mm 2 mps 700 mmHg 10%
    17:00 +43°C° 0 mm 2 mps 700 mmHg 10%
    18:00 +41°C° 0 mm 2 mps 700 mmHg 14%
    19:00 +37°C° 0 mm 1 mps 700 mmHg 17%
    20:00 +35°C° 0 mm 1 mps 700 mmHg 20%
    21:00 +34°C° 0 mm 1 mps 700 mmHg 20%
    22:00 +34°C° 0 mm 1 mps 701 mmHg 21%
    23:00 +33°C° 0 mm 1 mps 701 mmHg 22%

    3 July, Monday

    Time Temperature Precipitation Wind Pressure Humidity
    00:00 +33°C° 0 mm 1 mps 701 mmHg 22%
    01:00 +32°C° 0 mm 2 mps 701 mmHg 23%
    02:00 +31°C° 0 mm 2 mps 700 mmHg 23%
    03:00 +31°C° 0 mm 1 mps 700 mmHg 25%
    04:00 +30°C° 0 mm 1 mps 701 mmHg 26%
    05:00 +30°C° 0 mm 1 mps 701 mmHg 27%
    06:00 +32°C° 0 mm 1 mps 701 mmHg 23%
    07:00 +34°C° 0 mm 1 mps 702 mmHg 19%
    08:00 +36°C° 0 mm 1 mps 702 mmHg 16%
    09:00 +37°C° 0 mm 1 mps 702 mmHg 14%
    10:00 +40°C° 0 mm 1 mps 702 mmHg 13%
    11:00 +41°C° 0 mm 2 mps 702 mmHg 12%
    12:00 +42°C° 0 mm 2 mps 701 mmHg 11%
    13:00 +42°C° 0 mm 2 mps 701 mmHg 11%
    14:00 +43°C° 0 mm 2 mps 700 mmHg 11%
    15:00 +43°C° 0 mm 2 mps 700 mmHg 11%
    16:00 +43°C° 0 mm 2 mps 700 mmHg 12%
    17:00 +43°C° 0 mm 2 mps 700 mmHg 12%
    18:00 +41°C° 0 mm 2 mps 700 mmHg 15%
    19:00 +39°C° 0 mm 1 mps 700 mmHg 18%
    20:00 +36°C° 0 mm 1 mps 700 mmHg 21%
    21:00 +35°C° 0 mm 1 mps 700 mmHg 22%
    22:00 +35°C° 0 mm 1 mps 700 mmHg 23%
    23:00 +34°C° 0 mm 1 mps 700 mmHg 24%

    4 July, Tuesday

    Time Temperature Precipitation Wind Pressure Humidity
    00:00 +33°C° 0 mm 1 mps 700 mmHg 24%
    01:00 +33°C° 0 mm 1 mps 700 mmHg 25%
    02:00 +32°C° 0 mm 1 mps 700 mmHg 25%
    03:00 +31°C° 0 mm 1 mps 700 mmHg 26%
    04:00 +31°C° 0 mm 1 mps 700 mmHg 26%
    05:00 +30°C° 0 mm 1 mps 700 mmHg 27%
    06:00 +32°C° 0 mm 1 mps 701 mmHg 24%
    07:00 +34°C° 0 mm 1 mps 701 mmHg 21%
    08:00 +34°C° 0 mm 0 mps 702 mmHg 17%
    09:00 +37°C° 0 mm 1 mps 702 mmHg 16%
    10:00 +40°C° 0 mm 1 mps 701 mmHg 15%
    11:00 +41°C° 0 mm 1 mps 701 mmHg 13%
    12:00 +42°C° 0 mm 2 mps 701 mmHg 13%
    13:00 +43°C° 0 mm 2 mps 700 mmHg 12%
    14:00 +43°C° 0 mm 2 mps 700 mmHg 12%
    15:00 +43°C° 0 mm 2 mps 700 mmHg 12%
    16:00 +44°C° 0 mm 3 mps 700 mmHg 12%
    17:00 +44°C° 0 mm 3 mps 700 mmHg 13%
    18:00 +41°C° 0 mm 2 mps 700 mmHg 16%
    19:00 +39°C° 0 mm 1 mps 700 mmHg 19%
    20:00 +36°C° 0 mm 1 mps 700 mmHg 23%
    21:00 +35°C° 0 mm 1 mps 700 mmHg 25%
    22:00 +32°C° 0 mm 0 mps 700 mmHg 26%
    23:00 +32°C° 0 mm 0 mps 700 mmHg 28%
    Show more